This is the latest recevied weather packets stored in our database for station/object OH2NJR. If no packets are shown the sender has not sent any weather packets the latest 10 day(s).
| Time | Temp. | Humidity | Pressure | Rain* | Wind** | Luminosity | Snow |
|---|---|---|---|---|---|---|---|
| 1788555887 | 13.89° C | 88% | 995.7 hPa | 0 mm | - | - | - |
| 1788554768 | 13.33° C | 87% | - | 0 mm | - | - | - |
| 1788554763 | 13.33° C | 87% | 996.3 hPa | 0 mm | - | - | - |
| 1788553653 | 13.89° C | 85% | 996.4 hPa | 0 mm | - | - | - |
| 1788552658 | 13.89° C | 85% | 996.6 hPa | 0 mm | - | - | - |
| 1788551618 | 13.89° C | 85% | 996.7 hPa | 0 mm | - | - | - |
| 1788550625 | 13.33° C | 88% | 996.8 hPa | 0 mm | - | - | - |
| 1788549503 | 13.33° C | 84% | 996.9 hPa | 0 mm | - | - | - |
| 1788548348 | 13.89° C | 83% | 997 hPa | 0 mm | - | - | - |
| 1788547338 | 14.44° C | 80% | 997.1 hPa | 0 mm | - | - | - |
| 1788547333 | 14.44° C | 80% | 997.1 hPa | 0 mm | - | - | - |
| 1788546228 | 14.44° C | 80% | 997.1 hPa | 0 mm | - | - | - |
| 1788545177 | 14.44° C | 80% | 997.2 hPa | 0 mm | - | - | - |
| 1788543988 | 14.44° C | 79% | 997.3 hPa | 0 mm | - | - | - |
| 1788542793 | 14.44° C | 79% | 997.2 hPa | 0 mm | - | - | - |
| 1788541818 | 14.44° C | 80% | 997.3 hPa | 0 mm | - | - | - |
| 1788540723 | 15° C | 78% | 997.6 hPa | 0 mm | - | - | - |
| 1788539608 | 15° C | 79% | 997.6 hPa | 0 mm | - | - | - |
| 1788538608 | 15° C | 79% | 997.6 hPa | 0 mm | - | - | - |
| 1788537543 | 15° C | 80% | 997.7 hPa | 0 mm | - | - | - |
| 1788536438 | 15° C | 78% | 997.8 hPa | 0 mm | - | - | - |
| 1788535381 | 15° C | 78% | 997.8 hPa | 0 mm | - | - | - |
| 1788535378 | 15° C | 78% | 997.8 hPa | 0 mm | - | - | - |
| 1788534263 | 15° C | 76% | 997.9 hPa | 0 mm | - | - | - |
| 1788533116 | 15° C | 79% | 997.9 hPa | 0 mm | - | - | - |
* Rain latest hour (hover to see other rain measurements)
** Current wind speed in m/s (hover to see current wind gust speed)